GW5308 Weather Reports


time (UTC)temp
F
wind
direction
speed
knots
gust
knots
rain 1hr
in
rain 24hr
in
rain mn
in
humidity
%
barometer
mb
20260504233034 73 280 0.9 2.6 0.00 0.00 0.00 63 1014.4
20260504232516 73 323 0.0 3.5 0.00 0.00 0.00 63 1014.4
20260504232016 73 301 0.9 6.1 0.00 0.00 0.00 62 1014.4
20260504231537 73 354 0.0 6.1 0.00 0.00 0.00 62 1014.4
20260504231015 74 346 0.9 3.5 0.00 0.00 0.00 62 1014.4
20260504230515 74 306 0.0 4.3 0.00 0.00 0.00 62 1014.4
20260504230034 74 27 0.9 4.3 0.00 0.00 0.00 61 1014.5
20260504225516 74 23 0.9 5.2 0.00 0.00 0.00 61 1014.4
20260504225016 75 8 1.7 5.2 0.00 0.00 0.00 60 1014.4
20260504224531 75 326 0.9 5.2 0.00 0.00 0.00 60 1014.4
20260504224016 75 155 0.9 5.2 0.00 0.00 0.00 60 1014.5
20260504223514 76 39 1.7 5.2 0.00 0.00 0.00 59 1014.5
20260504223042 76 298 0.9 5.2 0.00 0.00 0.00 59 1014.5
20260504222518 76 30 1.7 4.3 0.00 0.00 0.00 58 1014.4
20260504222019 77 307 1.7 9.6 0.00 0.00 0.00 58 1014.4
20260504221536 77 4 1.7 9.6 0.00 0.00 0.00 58 1014.5
20260504221015 77 360 1.7 5.2 0.00 0.00 0.00 58 1014.5
20260504220515 77 338 1.7 5.2 0.00 0.00 0.00 58 1014.4
20260504220031 77 12 1.7 6.1 0.00 0.00 0.00 58 1014.5
20260504215517 77 26 2.6 6.1 0.00 0.00 0.00 57 1014.4
20260504215017 78 6 3.5 6.1 0.00 0.00 0.00 56 1014.5
20260504214534 79 359 1.7 5.2 0.00 0.00 0.00 55 1014.6
20260504214014 78 172 0.9 4.3 0.00 0.00 0.00 57 1014.5
20260504213514 79 18 1.7 5.2 0.00 0.00 0.00 56 1014.5
20260504213052 79 114 1.7 5.2 0.00 0.00 0.00 55 1014.5
20260504212520 80 330 0.9 4.3 0.00 0.00 0.00 55 1014.6
20260504212015 80 340 0.9 4.3 0.00 0.00 0.00 55 1014.4
20260504211537 80 331 0.9 4.3 0.00 0.00 0.00 56 1014.4
20260504211016 79 34 1.7 4.3 0.00 0.00 0.00 55 1014.4
20260504210513 80 233 0.9 6.1 0.00 0.00 0.00 55 1014.5
20260504210034 79 340 0.9 6.1 0.00 0.00 0.00 56 1014.4
20260504205513 79 354 1.7 7.0 0.00 0.00 0.00 55 1014.5
20260504205015 79 27 0.9 7.0 0.00 0.00 0.00 56 1014.4
20260504204534 79 356 0.9 6.1 0.00 0.00 0.00 56 1014.4
20260504204013 80 0 1.7 6.1 0.00 0.00 0.00 55 1014.3
20260504203514 79 278 0.9 7.0 0.00 0.00 0.00 57 1014.3
20260504203035 79 8 0.9 7.0 0.00 0.00 0.00 56 1014.4
20260504202516 79 313 1.7 7.0 0.00 0.00 0.00 56 1014.6
20260504202014 79 318 1.7 7.0 0.00 0.00 0.00 55 1014.4
20260504201536 79 8 1.7 6.1 0.00 0.00 0.00 56 1014.5
20260504201018 79 27 1.7 6.1 0.00 0.00 0.00 56 1014.7
20260504200516 80 311 3.5 6.1 0.00 0.00 0.00 54 1014.7
20260504200034 81 65 1.7 6.1 0.00 0.00 0.00 54 1014.8
20260504195514 81 295 0.9 4.3 0.00 0.00 0.00 53 1014.7
20260504195013 81 32 0.9 5.2 0.00 0.00 0.00 53 1014.9
20260504194542 81 248 0.9 5.2 0.00 0.00 0.00 54 1014.9
20260504194018 81 48 1.7 5.2 0.00 0.00 0.00 54 1014.9
20260504193514 81 258 0.9 5.2 0.00 0.00 0.00 55 1015.0
20260504193042 80 330 1.7 5.2 0.00 0.00 0.00 56 1015.1
20260504192515 80 17 1.7 5.2 0.00 0.00 0.00 53 1015.2
20260504192014 81 318 1.7 4.3 0.00 0.00 0.00 54 1015.2
20260504191536 80 25 0.9 4.3 0.00 0.00 0.00 53 1015.3
20260504191017 80 149 0.9 4.3 0.00 0.00 0.00 53 1015.3
20260504190514 80 288 0.9 4.3 0.00 0.00 0.00 54 1015.5
20260504190034 81 281 0.9 5.2 0.00 0.00 0.00 54 1015.5
20260504185520 80 192 0.9 5.2 0.00 0.00 0.00 56 1015.6
20260504185017 79 3 1.7 6.1 0.00 0.00 0.00 55 1015.8
20260504184535 79 6 0.9 6.1 0.00 0.00 0.00 57 1015.8
20260504184017 80 355 0.9 7.8 0.00 0.00 0.00 55 1015.7
20260504183514 80 43 1.7 7.8 0.00 0.00 0.00 53 1015.9
20260504183031 82 68 1.7 7.8 0.00 0.00 0.00 52 1015.8
20260504182519 82 144 0.9 4.3 0.00 0.00 0.00 52 1015.9
20260504182016 81 162 0.0 4.3 0.00 0.00 0.00 53 1015.9
20260504181533 81 11 0.9 6.1 0.00 0.00 0.00 54 1016.0
20260504181016 81 344 1.7 6.1 0.00 0.00 0.00 52 1015.8
20260504180514 82 285 1.7 5.2 0.00 0.00 0.00 52 1015.9
20260504180037 82 56 0.9 4.3 0.00 0.00 0.00 53 1016.0
20260504175514 81 259 0.9 6.1 0.00 0.00 0.00 54 1015.9
20260504175016 81 22 0.9 6.1 0.00 0.00 0.00 53 1016.1
20260504174534 81 176 0.0 4.3 0.00 0.00 0.00 53 1016.1
20260504174014 81 103 1.7 5.2 0.00 0.00 0.00 55 1016.2
20260504173514 81 18 1.7 5.2 0.00 0.00 0.00 53 1016.3
20260504173043 81 351 0.9 3.5 0.00 0.00 0.00 52 1016.3
20260504172517 81 186 0.9 7.0 0.00 0.00 0.00 53 1016.3
20260504172015 80 46 1.7 7.0 0.00 0.00 0.00 57 1016.3
20260504171535 80 18 1.7 4.3 0.00 0.00 0.00 56 1016.4
20260504171018 79 158 0.9 3.5 0.00 0.00 0.00 59 1016.3
20260504170516 78 321 0.9 3.5 0.00 0.00 0.00 55 1016.4
20260504151016 75 19 0.9 4.3 0.00 0.00 0.00 66 1017.3
20260504150514 75 26 0.0 2.6 0.00 0.00 0.00 67 1017.3
20260504141016 74 64 0.0 4.3 0.00 0.00 0.00 69 1017.0
20260504140516 74 149 0.9 5.2 0.00 0.00 0.00 68 1017.0
20260504130516 72 286 0.0 1.7 0.00 0.00 0.00 72 1016.8
20260504110514 54 0 0.0 0.0 0.00 0.00 0.00 100 1015.8
20260504100513 54 0 0.0 0.0 0.00 0.00 0.00 100 1015.5
20260504081534 56 0 0.0 0.0 0.00 0.00 0.00 99 1015.8
20260504081014 56 0 0.0 0.0 0.00 0.00 0.00 99 1015.8
20260504080514 56 0 0.0 0.0 0.00 0.00 0.00 99 1015.8
20260504050516 60 0 0.0 0.0 0.00 0.00 0.00 95 1016.5
20260504045513 60 0 0.0 0.0 0.00 0.00 0.00 95 1016.6
20260504045020 60 0 0.0 0.0 0.00 0.00 0.00 94 1016.6
20260504044541 61 0 0.0 0.0 0.00 0.00 0.00 94 1016.8
20260504044013 61 0 0.0 0.0 0.00 0.00 0.00 94 1016.7
20260504043514 61 0 0.0 0.0 0.00 0.00 0.00 93 1016.7
20260504043035 61 0 0.0 0.0 0.00 0.00 0.00 93 1016.7
20260504042513 61 0 0.0 0.0 0.00 0.00 0.00 92 1016.8
20260504042016 61 0 0.0 0.0 0.00 0.00 0.00 91 1016.7
20260504041533 62 0 0.0 0.0 0.00 0.00 0.00 91 1016.7
20260504041016 62 0 0.0 0.0 0.00 0.00 0.00 90 1016.7
20260504040519 62 0 0.0 0.0 0.00 0.00 0.00 91 1016.7
20260504040033 62 0 0.0 0.0 0.00 0.00 0.00 90 1016.8
20260504035516 62 0 0.0 0.0 0.00 0.00 0.00 90 1016.9
20260504035015 63 0 0.0 0.0 0.00 0.00 0.00 89 1016.7
20260504034539 63 0 0.0 0.0 0.00 0.00 0.00 89 1016.8
20260504034015 63 0 0.0 0.0 0.00 0.00 0.00 89 1016.7
20260504033515 63 0 0.0 0.0 0.00 0.00 0.00 88 1016.9
20260504033048 63 0 0.0 0.0 0.00 0.00 0.00 88 1016.8
20260504032513 63 0 0.0 0.0 0.00 0.00 0.00 87 1016.8
20260504032017 64 0 0.0 0.0 0.00 0.00 0.00 87 1016.8
20260504031534 64 0 0.0 0.0 0.00 0.00 0.00 87 1016.8
20260504031016 64 0 0.0 0.0 0.00 0.00 0.00 86 1016.7
20260504030515 64 0 0.0 0.0 0.00 0.00 0.00 85 1016.8
20260504030031 64 0 0.0 0.0 0.00 0.00 0.00 85 1016.8
20260504025516 64 0 0.0 0.0 0.00 0.01 0.00 85 1016.9
20260504025014 65 0 0.0 0.0 0.00 0.01 0.00 84 1016.9
20260504024535 65 0 0.0 0.0 0.00 0.01 0.00 84 1016.9
20260504024016 65 0 0.0 0.0 0.00 0.01 0.00 83 1016.9
20260504023516 65 0 0.0 0.0 0.00 0.01 0.00 83 1016.9
20260504023034 65 0 0.0 0.0 0.00 0.01 0.00 83 1016.8
20260504022514 65 0 0.0 0.0 0.00 0.01 0.00 83 1016.8
20260504022013 65 0 0.0 0.9 0.00 0.01 0.00 82 1016.9
20260504021535 65 0 0.0 1.7 0.00 0.01 0.00 82 1016.8
20260504021013 66 0 0.0 1.7 0.00 0.01 0.00 81 1016.6
20260504020515 66 0 0.0 2.6 0.00 0.01 0.00 81 1016.6
20260504020034 66 0 0.0 2.6 0.00 0.01 0.00 81 1016.5
20260504015515 66 0 0.0 1.7 0.00 0.02 0.00 80 1016.5
20260504015015 66 342 0.0 0.9 0.00 0.02 0.00 80 1016.5
20260504014536 66 341 0.0 0.9 0.00 0.02 0.00 80 1016.5
20260504014016 66 24 0.0 0.9 0.00 0.02 0.00 80 1016.4
20260504013515 66 0 0.0 1.7 0.00 0.02 0.00 79 1016.5
20260504013036 66 0 0.0 1.7 0.00 0.02 0.00 79 1016.6
20260504012516 66 31 0.0 0.9 0.00 0.02 0.00 79 1016.5
20260504012016 66 0 0.0 2.6 0.00 0.02 0.00 78 1016.4
20260504011536 67 0 0.0 2.6 0.00 0.02 0.00 78 1016.4
20260504011016 67 0 0.0 2.6 0.00 0.02 0.00 78 1016.3
20260504010515 67 0 0.0 2.6 0.00 0.02 0.00 78 1016.3
20260504010046 67 0 0.0 2.6 0.00 0.02 0.00 77 1016.1
20260504005513 67 323 0.0 2.6 0.00 0.02 0.00 77 1016.1
20260504005016 67 0 0.0 2.6 0.00 0.02 0.00 76 1016.1
20260504004532 68 0 0.0 2.6 0.00 0.02 0.00 76 1016.2
20260504004015 68 0 0.0 1.7 0.00 0.02 0.00 76 1016.3
20260504003518 68 300 0.0 1.7 0.00 0.02 0.00 75 1016.3
20260504003031 68 0 0.0 1.7 0.00 0.02 0.00 75 1016.2
20260504002514 68 330 0.0 1.7 0.00 0.02 0.00 74 1016.2
20260504002013 69 11 0.0 2.6 0.00 0.02 0.00 73 1016.2
20260504001533 69 360 0.0 2.6 0.00 0.02 0.00 73 1016.2
20260504001017 69 303 0.0 2.6 0.00 0.02 0.00 73 1016.1
20260504000518 69 328 0.0 2.6 0.00 0.02 0.00 72 1015.9
20260504000031 70 3 0.0 2.6 0.00 0.02 0.00 71 1015.8
20260503235514 70 357 0.9 2.6 0.00 0.02 0.00 71 1015.8
20260503235014 70 332 0.0 2.6 0.00 0.02 0.00 71 1015.7
20260503234534 70 350 0.0 2.6 0.00 0.02 0.00 70 1015.8
20260503234018 70 13 0.9 3.5 0.00 0.02 0.00 70 1015.7
20260503233512 71 56 0.9 4.3 0.00 0.02 0.00 69 1015.7